Regional Weather Roundup
Issued by NWS

Home | Current Version | Previous Version | Text Only | Print | Product List | Glossary Off
Versions: 1 2 3 4 5 6 7 8 9 10 11 12 13 14 15 16 17 18 19 20 21 22 23 24 25 26 27 28 29 30 31 32 33 34 35 36 37 38 39 40 41 42 43 44 45 46 47 48 49 50

504
ASUS43 KBIS 250310
RWRND

NORTH DAKOTA REGIONAL WEATHER ROUNDUP
NATIONAL WEATHER SERVICE BISMARCK ND
1000 PM CDT WED MAY 24 2017

NOTE: "FAIR" INDICATES FEW OR NO CLOUDS BELOW 12,000 FEET WITH NO
SIGNIFICANT WEATHER AND/OR OBSTRUCTIONS TO VISIBILITY.


NDZ001>003-009>011-017-250400-
NORTHWEST NORTH DAKOTA

CITY           SKY/WX    TMP DP  RH WIND       PRES   REMARKS
WILLISTON      RAIN      58  54  86 SW5       29.40R
MINOT          FAIR      65  39  38 SE13      29.38S
MINOT AFB      CLOUDY    65  39  38 S17G26    29.36F
$$

NDZ018>021-031>035-040>046-250400-
SOUTHWEST NORTH DAKOTA

CITY           SKY/WX    TMP DP  RH WIND       PRES   REMARKS
BISMARCK       FAIR      63  40  42 SE18      29.40F
DICKINSON      LGT RAIN  62  38  40 SE13      29.32F
GARRISON         N/A     62  39  42 SE17      29.38F
HETTINGER ARPT CLOUDY    63  39  41 SE13      29.37R
$$

NDZ004>008-012>016-024-026-027-054-250400-
NORTHEAST NORTH DAKOTA

CITY           SKY/WX    TMP DP  RH WIND       PRES   REMARKS
GRAND FORKS    PTCLDY    60  42  51 SE16      29.60R
GRND FRKS AFB  CLOUDY    58  42  55 S15       29.60R
DEVILS LAKE    FAIR      56  44  64 SE17      29.53S
$$

NDZ022-023-025-028>030-036>039-047>053-250400-
SOUTHEAST NORTH DAKOTA

CITY           SKY/WX    TMP DP  RH WIND       PRES   REMARKS
FARGO          PTCLDY    58  44  60 SE14      29.63S
JAMESTOWN      FAIR      56  44  64 SE22      29.53S
$$





USA.gov is the U.S. government's official web portal to all federal, state and local government web resources and services.